Flag Weather past 2 weeks in Colonia, Yap, Micronesia

Now
81 °F

Passing clouds.


Feels Like: 89 °F
Forecast: 81 / 88 °F
Wind: 8 mph from East

Location: Yap Island

Current Time: Nov 29, 2014 at 6:54:41 AM

Latest Report: Nov 29, 2014 at 5:51 AM


Visibility: 12 mi

Pressure: 29.76 "Hg

Humidity: 89%

Dew point: 78 °F

Location of ColoniaLocation

Historic Weather in Colonia — Graph

°F

Colonia temperature yesterday

Maximum temperature yesterday: 88 °F (at 1:50 PM)
Minimum temperature yesterday: 79 °F (at 3:52 AM)
Average temperature yesterday: 83 °F

Past Weeks' High & Low Weather Summary

 TemperatureHumidityPressure
High88 °F (Nov 28, 1:50 PM)96% (Nov 16, 3:56 AM)29.90 "Hg (Nov 16, 3:56 AM)
Low77 °F (Nov 18, 5:51 AM)71% (Nov 17, 12:50 PM)29.72 "Hg (Nov 25, 3:50 PM)
Average82 °F86%29.81 "Hg
* Reported Nov 14 4:50 AM — Nov 29 4:57 AM, Colonia, Weather by CustomWeather, © 2014

Note: Actual official high and low records may vary slightly from our data, if they occured in-between our weather recording intervals... More about our weather records

Advertising

Colonia weather history for previous 24 hours

 ConditionsComfort  
Time TempWeatherWind HumidityBarometerVisibility
4:57 AM
Nov 29
81 °FPassing clouds.8 mph89%29.75 "Hg12 mi
3:53 AM82 °FPassing clouds.9 mph88%29.76 "Hg12 mi
2:59 AM82 °FPassing clouds.7 mph87%29.76 "Hg12 mi
1:50 AM82 °FPassing clouds.9 mph87%29.78 "Hg12 mi
12:50 AM82 °FPartly cloudy.8 mph89%29.79 "Hg12 mi
11:57 PM
Nov 28
83 °FMostly cloudy.9 mph86%29.79 "Hg12 mi
10:50 PM83 °FMostly cloudy.8 mph87%29.80 "Hg12 mi
9:51 PM82 °FMostly cloudy.7 mph88%29.80 "Hg12 mi
8:53 PM82 °FMostly cloudy.6 mph86%29.80 "Hg12 mi
7:51 PM83 °FMostly cloudy.8 mph87%29.78 "Hg12 mi
6:51 PM83 °FMore clouds than sun.10 mph85%29.77 "Hg12 mi
5:54 PM83 °FBroken clouds.7 mph84%29.75 "Hg12 mi
4:56 PM85 °FBroken clouds.9 mph80%29.73 "Hg12 mi
3:51 PM86 °FPartly sunny.14 mph80%29.73 "Hg12 mi
2:52 PM86 °FPartly sunny.13 mph80%29.73 "Hg12 mi
1:50 PM88 °FPartly sunny.14 mph77%29.74 "Hg12 mi
12:51 PM86 °FBroken clouds.12 mph84%29.77 "Hg12 mi
11:52 AM87 °FBroken clouds.14 mph79%29.80 "Hg12 mi
10:50 AM87 °FBroken clouds.10 mph81%29.81 "Hg12 mi
9:50 AM87 °FBroken clouds.12 mph81%29.81 "Hg12 mi
8:53 AM86 °FBroken clouds.12 mph82%29.80 "Hg12 mi
7:51 AM84 °FMore clouds than sun.10 mph86%29.79 "Hg12 mi
6:52 AM82 °FPartly cloudy.9 mph89%29.76 "Hg12 mi
Weather by CustomWeather, © 2014

See weather overviewHow to use our weather pages